Crest Hill, IL

7:14 AM CST on February 25, 2017 (GMT -0600)
Lewis University

Weather History for KLOT - May, 2013

Change the Weather History Date:

Friday, May 10, 2013

  Actual Average Record
Temperature  
Mean Temperature 49 °F 59 °F  
Max Temperature 53 °F 69 °F 91 °F (2011)
Min Temperature 45 °F 48 °F 35 °F (1997)
Degree Days  
Heating Degree Days 16 7  
Month to date heating degree days 55 85  
Since 1 July heating degree days 6034 6079  
Cooling Degree Days 0 1  
Month to date cooling degree days 9 8  
Year to date cooling degree days 16 13  
Moisture  
Dew Point 46 °F    
Average Humidity 91    
Maximum Humidity 100    
Minimum Humidity 80    
Precipitation  
Precipitation T in 0.13 in 0.81 in (2016)
Month to date precipitation 0.60 1.40  
Year to date precipitation 16.54 11.84  
Sea Level Pressure  
Sea Level Pressure 29.89 in    
Wind  
Wind Speed 8 mph (NNE)    
Max Wind Speed 16 mph    
Max Gust Speed 22 mph    
Visibility 7 miles    
Events Rain    
T = Trace of Precipitation, MM = Missing Value Source: NWS Daily Summary

Daily Weather History Graph

Daily Weather History Graph

Search for Another Location

Airport or City:

Trip Planner

Search our weather history database for the weather conditions in past years. The results will help you decide how hot, cold, wet, or windy it might be!

Date:

Astronomy

May. 10, 2013 Rise Set
Actual Time 5:37 AM CDT 8:00 PM CDT
Civil Twilight 5:06 AM CDT 8:31 PM CDT
Nautical Twilight 4:28 AM CDT 9:10 PM CDT
Astronomical Twilight 3:45 AM CDT 9:53 PM CDT
Moon 6:01 AM CDT (5/10) 8:49 PM CDT (5/10)
Length of Visible Light 15h 24m
Length of Day
14h 22m
New Moon, 0% of the Moon is Illuminated
May 10
New Moon
May 17
First Quarter
May 24
Full
May 31
Last Quarter
Jun 8
New

Hourly Weather History & Observations

Time (CDT) Temp. Windchill Dew Point Humidity Pressure Visibility Wind Dir Wind Speed Gust Speed Precip Events Conditions
12:15 AM 54.0 °F - 53.6 °F 99% 29.83 in 3.0 mi NE 6.9 mph - N/A   Overcast
12:35 AM 53.6 °F - 51.8 °F 94% 29.82 in 2.5 mi NNE 8.1 mph - N/A   Overcast
12:55 AM 51.8 °F - 51.8 °F 100% 29.81 in 3.0 mi NE 9.2 mph - N/A   Overcast
1:15 AM 52.0 °F - 51.4 °F 98% 29.80 in 3.0 mi NE 8.1 mph - N/A   Overcast
1:35 AM 51.8 °F - 51.1 °F 97% 29.79 in 2.5 mi ENE 8.1 mph - N/A   Drizzle
1:55 AM 50.9 °F - 50.4 °F 98% 29.79 in 3.0 mi NE 6.9 mph - N/A   Overcast
2:15 AM 51.1 °F - 50.5 °F 98% 29.79 in 3.0 mi NNE 4.6 mph - N/A   Overcast
2:35 AM 50.9 °F - 50.2 °F 97% 29.78 in 2.5 mi East 4.6 mph - N/A   Overcast
2:55 AM 50.4 °F - 49.8 °F 98% 29.79 in 2.5 mi NE 5.8 mph - N/A   Overcast
3:15 AM 50.2 °F - 49.6 °F 98% 29.79 in 2.5 mi NE 4.6 mph - N/A   Overcast
3:35 AM 49.8 °F - 49.3 °F 98% 29.79 in 2.5 mi NNE 4.6 mph - N/A   Overcast
3:55 AM 49.5 °F - 49.1 °F 99% 29.79 in 1.8 mi NNE 5.8 mph - N/A   Light Drizzle
4:15 AM 49.3 °F - 49.1 °F 99% 29.79 in 1.8 mi NNE 6.9 mph - N/A   Overcast
4:35 AM 49.1 °F - 48.7 °F 99% 29.79 in 2.5 mi NNE 5.8 mph - N/A   Overcast
4:55 AM 49.1 °F - 48.7 °F 99% 29.79 in 3.0 mi NE 5.8 mph - N/A   Overcast
5:15 AM 48.4 °F - 48.2 °F 99% 29.79 in 2.5 mi North 9.2 mph - N/A   Overcast
5:35 AM 48.0 °F - 47.5 °F 98% 29.80 in 2.5 mi North 10.4 mph - N/A Rain Light Rain
5:55 AM 48.2 °F - 47.7 °F 98% 29.81 in 4.0 mi North 11.5 mph - N/A   Overcast
6:15 AM 48.2 °F - 47.7 °F 98% 29.81 in 3.0 mi North 12.7 mph - N/A   Overcast
6:35 AM 47.7 °F - 47.1 °F 98% 29.82 in 5.0 mi North 11.5 mph - N/A   Overcast
6:55 AM 46.4 °F 41.5 °F 46.4 °F 100% 29.84 in 3.0 mi North 10.4 mph - N/A   Overcast
7:15 AM 45.9 °F 41.2 °F 45.3 °F 98% 29.85 in 3.0 mi North 9.2 mph - N/A   Overcast
7:35 AM 45.7 °F 40.6 °F 45.0 °F 97% 29.85 in 5.0 mi North 10.4 mph - N/A   Overcast
7:55 AM 46.4 °F 41.9 °F 44.6 °F 93% 29.86 in 4.0 mi North 9.2 mph - N/A   Overcast
8:15 AM 46.0 °F 41.4 °F 45.1 °F 97% 29.87 in 5.0 mi North 9.2 mph - N/A   Overcast
8:35 AM 46.9 °F - 45.5 °F 95% 29.87 in 10.0 mi NNE 6.9 mph - N/A   Overcast
8:55 AM 47.1 °F - 45.5 °F 94% 29.88 in 10.0 mi NNE 11.5 mph - N/A   Overcast
9:15 AM 47.7 °F - 45.9 °F 93% 29.89 in 10.0 mi North 9.2 mph - N/A   Overcast
9:35 AM 48.0 °F - 46.2 °F 93% 29.89 in 10.0 mi North 8.1 mph - N/A   Overcast
9:55 AM 48.6 °F - 46.6 °F 93% 29.89 in 10.0 mi North 11.5 mph - N/A   Overcast
10:15 AM 48.6 °F - 46.2 °F 92% 29.89 in 10.0 mi North 11.5 mph - N/A   Overcast
10:35 AM 49.3 °F - 46.8 °F 91% 29.89 in 10.0 mi NNE 16.1 mph 21.9 mph N/A   Overcast
10:55 AM 49.8 °F - 46.8 °F 89% 29.90 in 10.0 mi North 11.5 mph - N/A   Overcast
11:15 AM 49.5 °F - 46.8 °F 90% 29.91 in 10.0 mi North 9.2 mph - N/A   Overcast
11:35 AM 50.0 °F - 46.6 °F 88% 29.91 in 10.0 mi NNE 11.5 mph - N/A   Overcast
11:55 AM 50.0 °F - 46.4 °F 87% 29.91 in 10.0 mi North 15.0 mph - N/A   Overcast
12:15 PM 49.5 °F - 46.0 °F 88% 29.91 in 10.0 mi NNE 9.2 mph - N/A   Overcast
12:35 PM 48.7 °F - 45.5 °F 89% 29.92 in 10.0 mi NE 11.5 mph - N/A   Overcast
12:55 PM 48.6 °F - 45.5 °F 89% 29.93 in 10.0 mi NNE 9.2 mph - N/A   Overcast
1:15 PM 48.2 °F - 45.3 °F 90% 29.93 in 10.0 mi North 9.2 mph - N/A   Overcast
1:35 PM 48.0 °F - 44.8 °F 89% 29.94 in 10.0 mi NNE 11.5 mph - N/A   Overcast
1:55 PM 47.5 °F - 44.6 °F 90% 29.94 in 10.0 mi NNE 12.7 mph - N/A   Overcast
2:15 PM 47.5 °F - 44.2 °F 89% 29.94 in 10.0 mi NNE 11.5 mph - N/A   Overcast
2:35 PM 47.3 °F - 43.9 °F 88% 29.94 in 10.0 mi NNE 11.5 mph - N/A   Overcast
2:55 PM 47.7 °F - 44.1 °F 87% 29.93 in 10.0 mi NNE 15.0 mph - N/A   Overcast
3:15 PM 47.5 °F - 43.5 °F 86% 29.93 in 10.0 mi NNE 10.4 mph - N/A   Overcast
3:35 PM 47.5 °F - 43.2 °F 85% 29.93 in 10.0 mi NNE 15.0 mph - N/A   Overcast
3:55 PM 47.7 °F - 43.3 °F 85% 29.93 in 10.0 mi North 11.5 mph - N/A   Overcast
4:15 PM 48.2 °F - 42.8 °F 82% 29.93 in 10.0 mi NNE 10.4 mph - N/A   Overcast
4:35 PM 48.2 °F - 42.4 °F 80% 29.93 in 10.0 mi NNE 11.5 mph 17.3 mph N/A   Overcast
4:55 PM 47.3 °F - 42.3 °F 83% 29.95 in 10.0 mi NNE 12.7 mph 17.3 mph N/A   Overcast
5:15 PM 46.9 °F - 42.3 °F 84% 29.95 in 10.0 mi NNE 10.4 mph - N/A   Overcast
5:35 PM 46.9 °F - 42.1 °F 83% 29.95 in 10.0 mi NNE 12.7 mph - N/A   Overcast
5:55 PM 46.9 °F - 41.9 °F 83% 29.94 in 10.0 mi North 16.1 mph - N/A   Overcast
6:15 PM 47.1 °F - 42.1 °F 83% 29.94 in 10.0 mi NNE 10.4 mph - N/A   Overcast
6:35 PM 46.8 °F - 41.9 °F 83% 29.95 in 10.0 mi NNE 9.2 mph - N/A   Overcast
6:55 PM 46.4 °F 41.5 °F 41.9 °F 84% 29.96 in 10.0 mi NNE 10.4 mph - N/A   Overcast
7:15 PM 46.4 °F 41.9 °F 42.1 °F 85% 29.97 in 10.0 mi NNE 9.2 mph - N/A   Overcast
7:35 PM 46.4 °F 41.9 °F 42.1 °F 85% 29.97 in 10.0 mi NNE 9.2 mph - N/A   Overcast
7:55 PM 46.4 °F 42.4 °F 41.9 °F 84% 29.97 in 10.0 mi North 8.1 mph - N/A   Overcast
8:15 PM 46.4 °F 43.5 °F 42.1 °F 85% 29.97 in 10.0 mi North 5.8 mph - N/A   Overcast
8:35 PM 46.6 °F - 42.3 °F 85% 29.98 in 10.0 mi NNE 8.1 mph - N/A   Overcast
8:55 PM 46.0 °F 41.0 °F 42.8 °F 88% 29.98 in 10.0 mi NNE 10.4 mph - N/A   Overcast
9:15 PM 46.0 °F 43.1 °F 43.0 °F 89% 29.99 in 10.0 mi NNE 5.8 mph - N/A   Overcast
9:35 PM 46.0 °F 43.9 °F 42.8 °F 88% 29.99 in 10.0 mi NE 4.6 mph - N/A   Overcast
9:55 PM 45.7 °F 43.4 °F 42.8 °F 90% 29.99 in 7.0 mi NE 4.6 mph - N/A   Overcast
10:15 PM 45.5 °F 43.2 °F 43.0 °F 91% 29.98 in 7.0 mi NNE 4.6 mph - N/A   Overcast
10:35 PM 45.5 °F 44.2 °F 43.2 °F 92% 29.98 in 7.0 mi NNE 3.5 mph - N/A   Overcast
10:55 PM 45.5 °F 43.2 °F 43.3 °F 92% 29.98 in 7.0 mi NE 4.6 mph - N/A   Overcast
11:15 PM 45.1 °F - 43.2 °F 93% 29.98 in 7.0 mi Calm Calm - N/A   Overcast
11:35 PM 45.3 °F - 43.3 °F 93% 29.98 in 7.0 mi Calm Calm - N/A   Overcast
11:55 PM 45.3 °F - 43.2 °F 92% 29.97 in 7.0 mi Calm Calm - N/A   Overcast